This demonstration page uses our WeatherBlox Daily Observations layout. Learn more.

Left ArrowRight Arrow

34.16533, -84.80231

Hourly Observations for March 10, 2017

Temp ( °F °C ) Dew Point ( °F °C ) Humidity (%) Winds ( mph kmh ) Pressure ( in mb ) Visibility ( mi km ) Precip ( " mm )
12:53 am 00:53 Clear 61 16.1 43 6.1 52 52 undefined N/A 29.98 1015 10 16 0.00 0.00
1:53 am 01:53 Mostly Cloudy 53 11.7 44 6.7 72 72 undefined N/A 29.98 1015 10 16 0.00 0.00
2:46 am 02:46 Mostly Cloudy with Nearby Thunderstorms 65 18.3 49 9.4 56 56 undefined N/A 29.97 1015 10 16 0.00 0.03
2:53 am 02:53 Mostly Cloudy with Thunderstorms 64 17.8 51 10.6 63 63 undefined N/A 29.92 1013 9 14 0.01 0.25
3:28 am 03:28 Cloudy with Strong Thunderstorms 54 12.2 51 10.6 90 90 undefined N/A 30.06 1018 2 3 0.18 4.57
3:43 am 03:43 Cloudy with Thunderstorms 54 12.2 52 11.1 93 93 undefined N/A 30.06 1018 5 8 0.23 5.84
3:53 am 03:53 Cloudy with Thunderstorms 54 12.2 52 11.1 93 93 undefined N/A 30.03 1017 4 6 0.26 6.60
4:18 am 04:18 Cloudy with Nearby Thunderstorms 53 11.7 52 11.1 96 96 undefined N/A 30.06 1018 5 8 0.08 2.03
4:53 am 04:53 Cloudy with Rain 53 11.7 52 11.1 96 96 undefined N/A 29.99 1016 4 6 0.23 5.84
5:03 am 05:03 Cloudy with Thunderstorms 53 11.7 52 11.1 96 96 undefined N/A 30.06 1018 6 10 0.04 1.02
5:18 am 05:18 Cloudy with Light Rain 53 11.7 52 11.1 96 96 undefined N/A 30.06 1018 10 16 0.04 1.02
5:53 am 05:53 Mostly Cloudy 53 11.7 52 11.1 96 96 undefined N/A 29.99 1016 10 16 0.04 1.02
6:53 am 06:53 Partly Cloudy 53 11.7 52 11.1 96 96 undefined N/A 30.02 1017 10 16 0.00 0.00
6:56 am 06:56 Mostly Cloudy 53 11.7 52 11.1 96 96 undefined N/A 30.06 1018 10 16 0.00 0.00
7:08 am 07:08 Partly Cloudy 53 11.7 52 11.1 96 96 undefined N/A 30.06 1018 10 16 0.00 0.00
7:18 am 07:18 Mostly Cloudy 53 11.7 52 11.1 96 96 undefined N/A 30.06 1018 10 16 0.00 0.00
7:53 am 07:53 Cloudy 54 12.2 53 11.7 97 97 undefined N/A 30.06 1018 10 16 0.00 0.00
8:01 am 08:01 Cloudy 54 12.2 53 11.7 97 97 undefined N/A 30.09 1019 10 16 0.00 0.00
8:12 am 08:12 Cloudy 54 12.2 53 11.7 97 97 undefined N/A 30.09 1019 10 16 0.00 0.00
8:24 am 08:24 Cloudy 54 12.2 53 11.7 97 97 undefined N/A 30.09 1019 10 16 0.00 0.00
8:38 am 08:38 Mostly Cloudy 55 12.8 54 12.2 96 96 undefined N/A 30.09 1019 10 16 0.00 0.00
8:53 am 08:53 Mostly Sunny 58 14.4 55 12.8 90 90 undefined N/A 30.07 1018 10 16 0.00 0.00
9:33 am 09:33 Mostly Cloudy 59 15 54 12.2 83 83 undefined N/A 30.09 1019 10 16 0.00 0.00
9:53 am 09:53 Cloudy 59 15 53 11.7 81 81 undefined N/A 30.11 1020 10 16 0.00 0.00
10:09 am 10:09 Mostly Cloudy 61 16.1 54 12.2 78 78 undefined N/A 30.09 1019 10 16 0.00 0.00
10:53 am 10:53 Mostly Cloudy 62 16.7 52 11.1 70 70 undefined N/A 30.11 1020 10 16 0.00 0.00
11:05 am 11:05 Partly Cloudy 63 17.2 52 11.1 68 68 undefined N/A 30.12 1020 10 16 0.00 0.00
11:53 am 11:53 Mostly Sunny 66 18.9 51 10.6 59 59 undefined N/A 30.11 1020 10 16 0.00 0.00
12:53 pm 12:53 Mostly Sunny 68 20 48 8.9 49 49 undefined N/A 30.09 1019 10 16 0.00 0.00
1:53 pm 13:53 Partly Cloudy 69 20.6 45 7.2 42 42 undefined N/A 30.09 1019 10 16 0.00 0.00
2:53 pm 14:53 Mostly Sunny 68 20 42 5.6 39 39 undefined N/A 30.09 1019 10 16 0.00 0.00
3:53 pm 15:53 Sunny 66 18.9 38 3.3 36 36 undefined N/A 30.11 1020 10 16 0.00 0.00
4:53 pm 16:53 Sunny 63 17.2 36 2.2 37 37 undefined N/A 30.13 1020 10 16 0.00 0.00
5:53 pm 17:53 Sunny 60 15.6 32 0 35 35 undefined N/A 30.16 1021 10 16 0.00 0.00
6:53 pm 18:53 Clear 56 13.3 31 -0.6 39 39 undefined N/A 30.18 1022 10 16 0.00 0.00
7:53 pm 19:53 Clear 53 11.7 31 -0.6 43 43 undefined N/A 30.20 1023 10 16 0.00 0.00
8:53 pm 20:53 Clear 50 10 30 -1.1 46 46 undefined N/A 30.22 1023 10 16 0.00 0.00
9:53 pm 21:53 Clear 48 8.9 28 -2.2 46 46 undefined N/A 30.21 1023 10 16 0.00 0.00
10:53 pm 22:53 Clear 44 6.7 30 -1.1 58 58 undefined N/A 30.22 1024 10 16 0.00 0.00
11:53 pm 23:53 Clear 45 7.2 27 -2.8 49 49 undefined N/A 30.23 1024 10 16 0.00 0.00

Powered by AerisWeather